Погода в Тургеневке

Россия / Омская область     55°04′29″N   74°38′28″E
темп.,
°C
ветер,
м/с
пор.,
м/с
влажн.,
%
обл.,
%
осадки,
мм/ч
давл.,
гПа
погр.,
м
8 мая, сб
сб800:00+11з34505 0.0 102047
03:00+10з33541 0.0 102137
06:00+10зсз23575 0.0 102128
09:00+16зюз34395 0.0 1021342
12:00+20зюз45295 0.0 10201532
15:00+23з45230 0.0 10191977
18:00+22сз33240 0.0 10181958
21:00+18с22351 0.0 101811
9 мая, вс
вс900:00+16всв22379 0.0 101711
03:00+13всв3446100 0.0 101744
06:00+11всв4765100 0.0 1017129
09:00+15всв6952100 0.0 1017413
12:00+18в6738100 0.0 1018959
15:00+20всв7836100 0.0 10171374
18:00+18всв8834100 0.0 10171374
21:00+14всв71239100 0.0 1018734
10 мая, пн
пн1000:00+12в71442100 0.0 1019814
03:00+10в71445100 0.0 1020741
06:00+8всв71455100 0.0 1021646
09:00+10в81144100 0.0 1022951
12:00+14всв8103235 0.0 10221462
15:00+17всв792921 0.0 10211823
18:00+16св783110 0.0 10211838
21:00+12св37434 0.0 1022122
11 мая, вт
вт1100:00+9св38545 0.0 1023164
03:00+8св36600 0.0 102394
06:00+7ссв37655 0.0 1024155
09:00+11ссв45480 0.0 1024761
12:00+15ссв56385 0.0 10241564
15:00+17ссв56310 0.0 10231685
18:00+17ссв45286 0.0 10231714
21:00+13ссз3640100 0.0 1023100
12 мая, ср
ср1200:00+12ссз2241100 0.0 102320
03:00+11з2243100 0.0 102213
06:00+11з3346100 0.0 102164
09:00+16з3436100 0.0 1020482
12:00+18зсз6336100 0.0 10192229
15:00+18з3239100 0.0 10182090
18:00+15сз3453100 0.4 1019586
21:00+12ссз6979100 1.0 1020334